User: anonymous   Login
Location: Home
(51.5204°N, 2.5456°W)
Time: 00:47:08
(UTC+00:00)
Language:

POLYITAN 1 - Orbit

View from above orbital plane
View from above orbital plane
View from above satellite
View from above satellite

Ground track
Ground track

The orbit data is extracted from the following two-line orbital elements,

1 40042U 14033AJ  19343.78102077  .00000258  00000-0  33572-4 0  9992
2 40042  97.9175 263.5933 0014082 191.9443 168.1442 14.88757449297132
Epoch (UTC): 09 December 2019 18:44:40
Eccentricity: 0.0014082
inclination: 97.9175°
perigee height: 592 km
apogee height: 611 km
right ascension of ascending node: 263.5933°
argument of perigee: 191.9443°
revolutions per day: 14.88757449
mean anomaly at epoch: 168.1442°
orbit number at epoch: 29713

The dashed part of the orbit path shows where the satellite is in the earth's shadow,  

DLR